Hourly Data Report for February 06, 2017

All times are specified in Local Standard Time (LST). Add 1 hour to adjust for Daylight Saving Time where and when it is observed.

COLVILLE LAKE
NORTHWEST TERRITORIES

67°01'17.040" N
126°07'23.070" W
271.00 m
2200824
71055
WFX

Download Data

Hourly Data (February 2017)
Hourly Data Report for February 6, 2017
Temp Definition
°C
Dew Point Temp Definition
°C
Rel Hum Definition
%
Wind Dir Definition
10's deg

Wind Spd Definition
km/h
Visibility Definition
km
Stn Press Definition
kPa
Hmdx Definition


Wind Chill Definition


Weather Definition


TIME
00:00 -13.7 -15.3 87 2 6   99.02   -18 LegendNANA
01:00 -13.9 -15.5 88 33 8   99.02   -19 LegendNANA
02:00 -14.2 -15.8 88 32 6   99.02   -18 LegendNANA
03:00 -14.6 -16.2 88 32 10   99.01   -21 LegendNANA
04:00 -15.0 -16.6 87 32 7   98.99   -20 LegendNANA
05:00 -15.6 -17.1 88 30 4   98.96   -19 LegendNANA
06:00 -16.7 -18.4 87 30 3   98.92   -19 LegendNANA
07:00 -17.1 -19.0 85 31 7   98.90   -22 LegendNANA
08:00 -17.6 -19.5 85 24 6   98.83   -22 LegendNANA
09:00 -17.9 -19.8 85 20 5   98.77   -22 LegendNANA
10:00 -17.7 -19.6 85 22 17   98.73   -27 LegendNANA
11:00 -17.3 -19.2 85 25 7   98.73   -23 LegendNANA
12:00 -17.0 -18.8 85 19 3   98.70   -19 LegendNANA
13:00 -16.4 -18.3 86 22 6   98.67   -21 LegendNANA
14:00 -15.9 -17.7 86 25 3   98.68   -18 LegendNANA
15:00 -16.5 -18.5 84 34 13   98.70   -24 LegendNANA
16:00 -16.5 -18.4 85 32 6   98.67   -21 LegendNANA
17:00 -16.7 -18.5 86 33 7   98.67   -22 LegendNANA
18:00 -17.3 -19.3 84 32 8   98.66   -23 LegendNANA
19:00 -17.2 -19.3 84 31 11   98.69   -24 LegendNANA
20:00 -17.6 -19.7 84 32 7   98.69   -23 LegendNANA
21:00 -17.5 -19.7 83 33 14   98.73   -26 LegendNANA
22:00 -18.5 -20.7 83 34 10   98.73   -25 LegendNANA
23:00 -18.5 -20.6 84 1 7   98.80   -24 LegendNANA

Notes on Data Quality.

Legend

  • E = Estimated
  • M = Missing
  • NA = Not Available
  • ‡ = Partner data that is not subject to review by the National Climate Archives
Date modified: